When you browse on this site, cookies collect data to enhance your experience and personalize the content and advertising you see.
Visit our Privacy Policy to learn more. By continuing to use the site, you agree to this use of cookies and data.
  • In United Kingdom
  • List of Countries
  • For 7 days
  • Water Temperature
  • Satellite Maps
  • Weather Map
  • Weather Widgets
  • user-avatar
    Login

    Hourly Weather Mahilyow

    Today, 21 May, Tuesday

    Time Temperature Precipitation Wind Pressure Humidity
    00:00 +17°C° 0 mm 4 mps 748 mmHg 75%
    01:00 +17°C° 0 mm 4 mps 748 mmHg 75%
    02:00 +15°C° 0 mm 4 mps 747 mmHg 77%
    03:00 +15°C° 0 mm 4 mps 747 mmHg 76%
    04:00 +15°C° 0 mm 4 mps 747 mmHg 75%
    05:00 +15°C° 0 mm 5 mps 747 mmHg 75%
    06:00 +16°C° 0 mm 5 mps 747 mmHg 70%
    07:00 +19°C° 0 mm 5 mps 747 mmHg 66%
    08:00 +20°C° 0 mm 6 mps 747 mmHg 60%
    09:00 +22°C° 0 mm 6 mps 747 mmHg 57%
    10:00 +23°C° 0 mm 6 mps 747 mmHg 53%
    11:00 +24°C° 0 mm 6 mps 747 mmHg 49%
    12:00 +24°C° 0 mm 6 mps 747 mmHg 49%
    13:00 +24°C° 0 mm 6 mps 746 mmHg 49%
    14:00 +26°C° 0 mm 7 mps 746 mmHg 49%
    15:00 +23°C° 0.1 mm 6 mps 746 mmHg 57%
    16:00 +22°C° 0.1 mm 6 mps 745 mmHg 65%
    17:00 +20°C° 0.1 mm 5 mps 745 mmHg 74%
    18:00 +19°C° 0 mm 5 mps 745 mmHg 77%
    19:00 +18°C° 0 mm 4 mps 745 mmHg 80%
    20:00 +18°C° 0 mm 4 mps 744 mmHg 83%
    21:00 +17°C° 0 mm 4 mps 744 mmHg 85%
    22:00 +15°C° 0 mm 4 mps 744 mmHg 88%
    23:00 +15°C° 0 mm 4 mps 744 mmHg 90%

    Tomorrow, 22 May, Wednesday

    Time Temperature Precipitation Wind Pressure Humidity
    00:00 +14°C° 0 mm 3 mps 744 mmHg 91%
    01:00 +14°C° 0 mm 3 mps 744 mmHg 93%
    02:00 +13°C° 0 mm 3 mps 744 mmHg 95%
    03:00 +13°C° 0 mm 3 mps 743 mmHg 96%
    04:00 +13°C° 0 mm 3 mps 743 mmHg 96%
    05:00 +14°C° 0 mm 2 mps 743 mmHg 97%
    06:00 +16°C° 0 mm 2 mps 743 mmHg 89%
    07:00 +18°C° 0 mm 2 mps 743 mmHg 80%
    08:00 +20°C° 0 mm 2 mps 743 mmHg 72%
    09:00 +21°C° 0 mm 2 mps 743 mmHg 64%
    10:00 +23°C° 0 mm 2 mps 743 mmHg 56%
    11:00 +25°C° 0 mm 2 mps 743 mmHg 48%
    12:00 +25°C° 0 mm 2 mps 743 mmHg 46%
    13:00 +26°C° 0 mm 2 mps 742 mmHg 44%
    14:00 +26°C° 0 mm 3 mps 742 mmHg 42%
    15:00 +26°C° 0 mm 2 mps 742 mmHg 45%
    16:00 +25°C° 0 mm 2 mps 742 mmHg 48%
    17:00 +25°C° 0 mm 2 mps 741 mmHg 51%
    18:00 +23°C° 0 mm 2 mps 741 mmHg 58%
    19:00 +20°C° 0 mm 2 mps 741 mmHg 65%
    20:00 +20°C° 0 mm 1 mps 741 mmHg 72%
    21:00 +19°C° 0.1 mm 1 mps 741 mmHg 75%
    22:00 +18°C° 0.1 mm 1 mps 741 mmHg 78%
    23:00 +16°C° 0.1 mm 1 mps 741 mmHg 80%

    Day after tomorrow, 23 May, Thursday

    Time Temperature Precipitation Wind Pressure Humidity
    00:00 +16°C° 0 mm 1 mps 741 mmHg 81%
    01:00 +15°C° 0 mm 1 mps 741 mmHg 81%
    02:00 +15°C° 0 mm 1 mps 741 mmHg 81%
    03:00 +15°C° 0 mm 1 mps 741 mmHg 81%
    04:00 +15°C° 0 mm 1 mps 741 mmHg 81%
    05:00 +15°C° 0 mm 1 mps 741 mmHg 81%
    06:00 +18°C° 0 mm 1 mps 742 mmHg 74%
    07:00 +20°C° 0 mm 1 mps 742 mmHg 68%
    08:00 +22°C° 0 mm 1 mps 742 mmHg 61%
    09:00 +23°C° 0.1 mm 1 mps 742 mmHg 57%
    10:00 +25°C° 0.1 mm 1 mps 742 mmHg 54%
    11:00 +26°C° 0.1 mm 1 mps 742 mmHg 50%
    12:00 +26°C° 0.1 mm 1 mps 742 mmHg 50%
    13:00 +26°C° 0.1 mm 1 mps 742 mmHg 49%
    14:00 +26°C° 0.1 mm 1 mps 742 mmHg 49%
    15:00 +26°C° 0 mm 1 mps 741 mmHg 52%
    16:00 +25°C° 0 mm 1 mps 741 mmHg 55%
    17:00 +25°C° 0 mm 1 mps 741 mmHg 59%
    18:00 +24°C° 0 mm 1 mps 741 mmHg 61%
    19:00 +23°C° 0 mm 1 mps 742 mmHg 63%
    20:00 +22°C° 0 mm 1 mps 742 mmHg 65%
    21:00 +21°C° 0 mm 1 mps 742 mmHg 68%
    22:00 +19°C° 0 mm 1 mps 742 mmHg 72%
    23:00 +16°C° 0 mm 0 mps 742 mmHg 75%

    24 May, Friday

    Time Temperature Precipitation Wind Pressure Humidity
    00:00 +16°C° 0 mm 0 mps 742 mmHg 77%
    01:00 +15°C° 0 mm 0 mps 742 mmHg 79%
    02:00 +15°C° 0 mm 0 mps 742 mmHg 81%
    03:00 +15°C° 0.1 mm 0 mps 742 mmHg 82%
    04:00 +15°C° 0.1 mm 0 mps 743 mmHg 83%
    05:00 +15°C° 0.1 mm 0 mps 743 mmHg 84%
    06:00 +19°C° 0 mm 1 mps 743 mmHg 79%
    07:00 +21°C° 0 mm 1 mps 743 mmHg 73%
    08:00 +22°C° 0 mm 1 mps 743 mmHg 68%
    09:00 +24°C° 0.7 mm 1 mps 743 mmHg 63%
    10:00 +25°C° 0.7 mm 1 mps 743 mmHg 58%
    11:00 +26°C° 0.7 mm 1 mps 743 mmHg 52%
    12:00 +26°C° 1.3 mm 1 mps 743 mmHg 56%
    13:00 +26°C° 1.3 mm 1 mps 742 mmHg 59%
    14:00 +25°C° 1.3 mm 2 mps 742 mmHg 62%
    15:00 +24°C° 1.1 mm 2 mps 742 mmHg 70%
    16:00 +23°C° 1.1 mm 2 mps 742 mmHg 78%
    17:00 +20°C° 1.1 mm 2 mps 742 mmHg 86%
    18:00 +20°C° 0.3 mm 2 mps 742 mmHg 87%
    19:00 +19°C° 0.3 mm 2 mps 742 mmHg 88%
    20:00 +19°C° 0.3 mm 2 mps 741 mmHg 89%
    21:00 +18°C° 0.8 mm 2 mps 741 mmHg 90%
    22:00 +18°C° 0.8 mm 2 mps 741 mmHg 90%
    23:00 +18°C° 0.8 mm 1 mps 741 mmHg 90%

    25 May, Saturday

    Time Temperature Precipitation Wind Pressure Humidity
    00:00 +18°C° 0.1 mm 1 mps 741 mmHg 92%
    01:00 +16°C° 0.1 mm 1 mps 740 mmHg 94%
    02:00 +16°C° 0.1 mm 1 mps 740 mmHg 95%
    03:00 +16°C° 0.3 mm 1 mps 740 mmHg 95%
    04:00 +16°C° 0.3 mm 1 mps 740 mmHg 95%
    05:00 +16°C° 0.3 mm 1 mps 740 mmHg 96%
    06:00 +18°C° 1.1 mm 1 mps 739 mmHg 92%
    07:00 +19°C° 1.1 mm 1 mps 739 mmHg 88%
    08:00 +20°C° 1.1 mm 1 mps 739 mmHg 84%
    09:00 +21°C° 0.5 mm 1 mps 739 mmHg 80%
    10:00 +21°C° 0.5 mm 1 mps 739 mmHg 77%
    11:00 +21°C° 0.5 mm 1 mps 738 mmHg 73%
    12:00 +21°C° 1.1 mm 2 mps 738 mmHg 72%
    13:00 +23°C° 1.1 mm 2 mps 738 mmHg 70%
    14:00 +23°C° 1.1 mm 2 mps 738 mmHg 69%
    15:00 +21°C° 1.6 mm 3 mps 737 mmHg 74%
    16:00 +20°C° 1.6 mm 3 mps 737 mmHg 78%
    17:00 +20°C° 1.6 mm 4 mps 737 mmHg 83%
    18:00 +19°C° 0.8 mm 3 mps 737 mmHg 86%
    19:00 +18°C° 0.8 mm 3 mps 737 mmHg 89%
    20:00 +17°C° 0.8 mm 3 mps 737 mmHg 92%
    21:00 +16°C° 0.2 mm 3 mps 737 mmHg 92%
    22:00 +14°C° 0.2 mm 3 mps 737 mmHg 93%
    23:00 +14°C° 0.2 mm 2 mps 737 mmHg 93%

    26 May, Sunday

    Time Temperature Precipitation Wind Pressure Humidity
    00:00 +13°C° 0 mm 3 mps 737 mmHg 94%
    01:00 +12°C° 0 mm 3 mps 737 mmHg 94%
    02:00 +12°C° 0 mm 4 mps 737 mmHg 94%
    03:00 +11°C° 0 mm 4 mps 737 mmHg 93%
    04:00 +11°C° 0 mm 4 mps 738 mmHg 93%
    05:00 +11°C° 0 mm 4 mps 738 mmHg 92%
    06:00 +12°C° 0 mm 5 mps 738 mmHg 84%
    07:00 +12°C° 0 mm 5 mps 738 mmHg 76%
    08:00 +13°C° 0 mm 5 mps 739 mmHg 69%
    09:00 +14°C° 0 mm 5 mps 739 mmHg 65%
    10:00 +15°C° 0 mm 5 mps 739 mmHg 61%
    11:00 +16°C° 0 mm 5 mps 738 mmHg 57%
    12:00 +16°C° 0.2 mm 6 mps 738 mmHg 60%
    13:00 +15°C° 0.2 mm 6 mps 738 mmHg 64%
    14:00 +15°C° 0.2 mm 6 mps 738 mmHg 67%
    15:00 +15°C° 0.1 mm 5 mps 738 mmHg 67%
    16:00 +15°C° 0.1 mm 5 mps 738 mmHg 66%
    17:00 +15°C° 0.1 mm 4 mps 737 mmHg 65%
    18:00 +14°C° 0 mm 4 mps 737 mmHg 70%
    19:00 +13°C° 0 mm 4 mps 737 mmHg 75%
    20:00 +11°C° 0 mm 4 mps 737 mmHg 80%
    21:00 +11°C° 0 mm 4 mps 737 mmHg 82%
    22:00 +11°C° 0 mm 4 mps 737 mmHg 84%
    23:00 +11°C° 0 mm 4 mps 737 mmHg 86%
    Show more